[[{"header":{"parameterUnit":"m.s-1","parameterCategory":1,"la1":30.2992,"la2":30.254,"lo1":-89.0895,"lo2":-89.0443,"dy":0.0025,"dx":0.0025,"nx":19,"ny":19,"refTime":"2026-03-26T09:00:00:Z","depth":0,"parameterNumber":2,"parameterNumberName":"U-component_of_WINDS"},"data":[0,0,0,1.2995,1.2998,1.3112,1.3113,1.3265,1.3266,0,0,0,0,0,0,0,0,0,0,0,1.2962,1.2963,1.2995,1.2998,1.3112,1.3113,1.3265,1.3266,0,0,0,0,0,0,0,0,0,0,0,1.2962,1.2963,1.2964,1.2998,1.3112,1.3113,1.3264,1.3177,0,0,0,0,0,0,0,0,0,0,1.3065,1.3034,1.2963,1.2964,1.2999,1.3112,1.3113,1.3172,1.3182,1.3215,0,1.3241,0,1.3256,1.3277,1.3277,0,0,0,1.2998,1.3026,1.3056,1.2964,1.3,1.3112,1.3061,1.3178,1.3189,1.3228,1.3244,1.3249,1.3259,1.3278,1.3278,1.3464,1.3464,0,0,1.2992,1.2983,1.3048,1.3063,1.3043,1.3057,1.3064,1.3184,1.3202,1.3244,1.3253,1.3261,1.3279,1.328,1.3463,1.3464,0,0,0,1.2974,1.2979,1.3006,1.3057,1.3077,1.306,1.3069,1.3197,1.3206,1.3254,1.3263,1.328,1.3281,1.3462,1.3463,1.3498,0,0,0,1.297,1.2968,1.3003,1.2999,1.3075,1.3137,1.3078,1.3198,1.3212,1.3262,1.328,1.3283,1.3461,1.3462,1.3495,1.3516,0,0,0,1.2955,1.2966,1.2983,1.2999,1.3047,1.3136,1.3152,1.3201,1.3217,1.3277,1.3283,1.346,1.3462,1.3492,1.3512,1.3565,0,0,0,1.2936,1.3011,1.2983,1.3071,1.3046,1.3155,1.3151,1.3233,1.3289,1.328,1.3461,1.3463,1.3492,1.3509,1.3562,1.3609,1.3627,0,0,1.3026,1.3022,1.3074,1.3053,1.3165,1.3139,1.3257,1.3317,1.3331,1.3419,1.3424,1.3496,1.3512,1.3564,1.3728,1.3743,0,0,0,1.31,1.3138,1.317,1.3222,1.3269,1.3313,1.3355,1.3378,1.3454,1.3373,1.3529,1.3538,1.357,1.3593,1.3605,1.3634,1.3473,1.3472,1.3472,1.3216,1.323,1.332,1.3349,1.3401,1.3445,1.349,1.3529,1.3527,1.3564,1.3591,1.3688,1.3715,1.3724,1.3754,1.3615,1.3615,1.3615,1.3616,1.3351,1.3409,1.3407,1.3494,1.351,1.3584,1.3632,1.363,1.3703,1.3668,1.3697,1.3658,1.3739,1.3766,1.3618,1.3618,1.3618,1.3617,1.3617,1.343,1.346,1.3486,1.3567,1.3628,1.3656,1.3727,1.3739,1.3752,1.378,1.3812,1.3811,1.3814,1.3794,1.3794,1.3794,1.3795,1.3795,1.3795,1.3501,1.353,1.3587,1.3646,1.3684,1.3735,1.3784,1.3823,1.3869,1.3873,1.3873,1.3871,1.3743,1.3712,1.3801,1.38,1.3799,1.3798,1.3798,1.3635,1.3608,1.3696,1.3734,1.3807,1.387,1.3885,1.3963,1.3997,1.4033,1.4026,1.3929,1.3925,1.3916,1.389,1.402,1.402,1.402,1.402,1.3703,1.3702,1.3798,1.3858,1.3919,1.3943,1.4049,1.409,1.4128,1.4151,1.4134,1.4101,1.409,1.4094,1.408,1.4057,1.4226,1.4226,1.4226,1.3788,1.3794,1.3879,1.3914,1.3974,1.4026,1.4126,1.42,1.4237,1.4235,1.417,1.4162,1.4108,1.4089,1.4085,1.4064,1.4021,0,0]},{"header":{"parameterUnit":"m.s-1","parameterCategory":1,"la1":30.2992,"la2":30.254,"lo1":-89.0895,"lo2":-89.0443,"dy":0.0025,"dx":0.0025,"nx":19,"ny":19,"refTime":"2026-03-26T09:00:00:Z","depth":0,"parameterNumber":3,"parameterNumberName":"V-component_of_WINDS"},"data":[0,0,0,-3.3691,-3.3691,-3.372,-3.3721,-3.373,-3.373,0,0,0,0,0,0,0,0,0,0,0,-3.3667,-3.3667,-3.3691,-3.3691,-3.372,-3.3721,-3.373,-3.373,0,0,0,0,0,0,0,0,0,0,0,-3.3667,-3.3667,-3.3667,-3.3691,-3.372,-3.3721,-3.373,-3.3717,0,0,0,0,0,0,0,0,0,0,-3.3693,-3.3658,-3.3667,-3.3667,-3.3691,-3.372,-3.3721,-3.3717,-3.3718,-3.3706,0,-3.3694,0,-3.3712,-3.3729,-3.3729,0,0,0,-3.3701,-3.3657,-3.3679,-3.3666,-3.3691,-3.372,-3.371,-3.3718,-3.3719,-3.3707,-3.3694,-3.3695,-3.3712,-3.3729,-3.3729,-3.3634,-3.3634,0,0,-3.3699,-3.3664,-3.3678,-3.3679,-3.3676,-3.3709,-3.3711,-3.3719,-3.3701,-3.3694,-3.3696,-3.3713,-3.3729,-3.3729,-3.3635,-3.3634,0,0,0,-3.3688,-3.3662,-3.3684,-3.3678,-3.3686,-3.3709,-3.3711,-3.3701,-3.3711,-3.3696,-3.3713,-3.3729,-3.3729,-3.3636,-3.3635,-3.3557,0,0,0,-3.3687,-3.3656,-3.3683,-3.3661,-3.3685,-3.3694,-3.3692,-3.3711,-3.3713,-3.3713,-3.3729,-3.3729,-3.3637,-3.3636,-3.3561,-3.3524,0,0,0,-3.367,-3.3654,-3.3654,-3.366,-3.3672,-3.3695,-3.3706,-3.3712,-3.3722,-3.3729,-3.3729,-3.3638,-3.3636,-3.3565,-3.3531,-3.349,0,0,0,-3.3641,-3.3581,-3.3652,-3.3592,-3.3671,-3.3648,-3.3706,-3.369,-3.3687,-3.3729,-3.3637,-3.3635,-3.3567,-3.3535,-3.3494,-3.3447,-3.3425,0,0,-3.3545,-3.3568,-3.3536,-3.3601,-3.3556,-3.3646,-3.359,-3.3618,-3.3649,-3.3637,-3.3635,-3.356,-3.3531,-3.349,-3.3318,-3.33,0,0,0,-3.3494,-3.347,-3.3466,-3.3464,-3.3488,-3.3504,-3.3547,-3.3558,-3.355,-3.3637,-3.3536,-3.352,-3.3497,-3.3476,-3.3461,-3.3444,-3.3625,-3.3625,-3.3625,-3.3305,-3.3353,-3.3303,-3.3355,-3.3352,-3.3399,-3.34,-3.3423,-3.3468,-3.3444,-3.3439,-3.3329,-3.3303,-3.3292,-3.3273,-3.342,-3.342,-3.342,-3.342,-3.3169,-3.3143,-3.3211,-3.3186,-3.3236,-3.3215,-3.3259,-3.3293,-3.3279,-3.3335,-3.3318,-3.3372,-3.3272,-3.3257,-3.3414,-3.3415,-3.3416,-3.3416,-3.3417,-3.3049,-3.3045,-3.3063,-3.3067,-3.3065,-3.3119,-3.3105,-3.3151,-3.3193,-3.3176,-3.3177,-3.3178,-3.3184,-3.3174,-3.3174,-3.3173,-3.3173,-3.3173,-3.3173,-3.2916,-3.294,-3.2924,-3.2947,-3.2954,-3.2968,-3.3017,-3.3024,-3.3042,-3.3076,-3.3077,-3.3124,-3.3255,-3.3285,-3.3167,-3.3168,-3.3169,-3.3169,-3.317,-3.2756,-3.2801,-3.2775,-3.2782,-3.2815,-3.281,-3.2872,-3.2882,-3.2894,-3.2886,-3.2939,-3.3029,-3.3054,-3.3066,-3.3092,-3.293,-3.293,-3.293,-3.293,-3.2653,-3.2673,-3.2659,-3.2667,-3.268,-3.2734,-3.2703,-3.2742,-3.2789,-3.2799,-3.283,-3.2869,-3.288,-3.2898,-3.2914,-3.2938,-3.2742,-3.2742,-3.2741,-3.2557,-3.2581,-3.2545,-3.2596,-3.2626,-3.2651,-3.2623,-3.2628,-3.269,-3.2735,-3.2808,-3.2816,-3.2879,-3.2898,-3.2939,-3.2963,-3.3008,0,0]}]]